sat.trackr.live / text

‹ back to catalog

STARLINK-32371

NORAD 60916 · 2024-154P

PAYLOAD ACTIVE UNKNOWN

§ Identity

Operator
Country
US
Launch date
2024-08-31
Launch site
AFETR
Launch vehicle
Mass (kg)
RCS (m²)

Purposes: comms

External: N2YO · Heavens-Above · Gunter

§ Orbital elements

Epoch: 2026-09-21T20:04:33.275136Z

Period
94.01 min
Inclination
53.1597°
Eccentricity
0.0001375
Mean motion
15.31698385 rev/d
Perigee alt
469.8 km
Apogee alt
471.7 km
Semi-major
6,848.9 km
B*
8.1046e-6
RAAN
91.5035°
Arg perigee
90.8963°
Mean anomaly
269.2196°
Rev number
11,638

§ Raw data

STARLINK-323711 60916U 24154P   26264.83649624 -.00000114  00000+0  81046-5 0  99902 60916  53.1597  91.5035 0001375  90.8963 269.2196 15.31698385116381

JSON: /api/v1/satellites/60916 · /tle

For live sub-satellite position, see the globe view (requires WebGL).

§ Visibility from observer

Set your observer location to see the next 7 days of passes ≥ 10°. The values pass through the URL so the page stays shareable.

No JS? Fill the form by hand. The geolocation button needs JavaScript.